Regional Weather Roundup
Issued by NWS

Home | Current Version | Previous Version | Graphics & Text | Print | Product List | Glossary On
Versions: 1 2 3 4 5 6 7 8 9 10 11 12 13 14 15 16 17 18 19 20 21 22 23 24 25 26 27 28 29 30 31 32 33 34 35 36 37 38 39 40 41 42 43 44 45 46 47 48 49 50
000
ASUS45 KPSR 280600
RWRAZ

PRELIMINARY ARIZONA REGIONAL HOURLY WEATHER ROUNDUP
NATIONAL WEATHER SERVICE PHOENIX AZ
1100 PM MST WED AUG 27 2014

NOTE: FAIR INDICATES FEW OR NO CLOUDS BELOW 12,000 FEET WITH NO
SIGNIFICANT WEATHER AND/OR OBSTRUCTIONS TO VISIBILITY.

AZZ001>003-036-280700-
NORTHWEST ARIZONA

CITY           SKY/WX    TMP DP  RH WIND       PRES   REMARKS
KINGMAN        CLEAR     68  42  38 SE7       30.13S
6HR MIN TEMP:  67; 6HR MAX TEMP:  90;

$$

AZZ004>008-015-016-018-280700-
NORTH CENTRAL ARIZONA

CITY           SKY/WX    TMP DP  RH WIND       PRES   REMARKS
GRAND CANYON     N/A    N/A N/A N/A MISG        N/A
WILLIAMS       CLEAR     57  50  77 SE6       30.42S
PRESCOTT       CLEAR     63  51  65 S6        30.25R
6HR MIN TEMP:  63; 6HR MAX TEMP:  80;

FLAGSTAFF      MOCLDY    55  52  89 CALM      30.39S
6HR MIN TEMP:  54; 6HR MAX TEMP:  69; 6HR PCP:  0.04;

PAYSON         PTCLDY    64  55  72 CALM      30.27S
PAGE           PTCLDY    71  51  49 SW5       30.18S
6HR MIN TEMP:  71; 6HR MAX TEMP:  84;

$$

AZZ009>014-017-280700-
NORTHEAST ARIZONA

CITY           SKY/WX    TMP DP  RH WIND       PRES   REMARKS
WINSLOW        NOT AVBL
SAINT JOHNS    PTCLDY    62  56  80 SE3       30.27F
6HR MIN TEMP:  62; 6HR MAX TEMP:  76;

$$

AZZ023-280700-
GREATER PHOENIX AREA

CITY           SKY/WX    TMP DP  RH WIND       PRES   REMARKS
PHOENIX        PTCLDY    92  58  31 E8        29.92S
6HR MIN TEMP:  92; 6HR MAX TEMP: 102;

LUKE AFB       NOT AVBL
6HR MIN TEMP:  90; 6HR MAX TEMP: 101;

DEER VALLEY    CLEAR     88  59  37 E3        29.95S
6HR MIN TEMP:  88; 6HR MAX TEMP:  98;

SCOTTSDALE     CLEAR     91  58  32 NE5       29.96F
6HR MIN TEMP:  91; 6HR MAX TEMP:  99;

MESA-GATEWAY   CLEAR     88  54  31 CALM      29.97S
$$

AZZ027-028-280700-
SOUTHWEST MARICOPA COUNTY AND PINAL COUNTY

CITY           SKY/WX    TMP DP  RH WIND       PRES   REMARKS
CASA GRANDE    CLEAR     86  54  32 CALM      29.96F
6HR MIN TEMP:  86; 6HR MAX TEMP:  99;

GILA BEND      CLEAR     88  50  27 SW3       29.93S
$$

AZZ503-504-507>509-280700-
SOUTHEAST ARIZONA

CITY           SKY/WX    TMP DP  RH WIND       PRES   REMARKS
TUCSON         CLEAR     86  56  35 CALM      30.07S
6HR MIN TEMP:  86; 6HR MAX TEMP:  96;

DAVIS-MONTHAN  CLEAR     82  58  43 CALM      30.05S
6HR MIN TEMP:  82; 6HR MAX TEMP:  93;

NOGALES        CLEAR     70  58  65 CALM      30.15F
6HR MIN TEMP:  68; 6HR MAX TEMP:  87;

SAFFORD        CLEAR     80  55  42 NW9       30.07R
6HR MIN TEMP:  79; 6HR MAX TEMP:  92;

$$

AZZ020-021-025-026-031-280700-
SOUTHWEST ARIZONA

CITY           SKY/WX    TMP DP  RH WIND       PRES   REMARKS
YUMA           CLEAR     91  59  33 S3        29.87S
6HR MIN TEMP:  91; 6HR MAX TEMP: 106;

$$

CAZ031-033-041-043-047-048-061-280700-
SOUTHERN CALIFORNIA

CITY           SKY/WX    TMP DP  RH WIND       PRES   REMARKS
DOWNTOWN L.A.  CLEAR     73  58  59 CALM      30.00S
6HR MIN TEMP:  73; 6HR MAX TEMP:  85;

L.A. AIRPORT   CLEAR     73  55  53 W8        30.01S
6HR MIN TEMP:  73; 6HR MAX TEMP:  79;

SAN DIEGO      CLEAR     79  48  33 N7        30.01S
6HR MIN TEMP:  78; 6HR MAX TEMP:  84;

BURBANK        CLEAR     81  43  26 SW3       30.02S
6HR MIN TEMP:  81; 6HR MAX TEMP:  91;

ONTARIO        CLEAR     79  48  33 NW5       30.03S
6HR MIN TEMP:  79; 6HR MAX TEMP:  94;

RIVERSIDE      CLEAR     79  49  34 CALM      30.03S
6HR MIN TEMP:  79; 6HR MAX TEMP:  93;

PALM SPRINGS   CLEAR     95  49  20 NW6       29.91S
6HR MIN TEMP:  95; 6HR MAX TEMP: 107;

IMPERIAL       CLEAR     89  52  28 SW6       29.86R
6HR MIN TEMP:  89; 6HR MAX TEMP: 106;

BLYTHE         CLEAR     90  56  31 SW3       29.88S
6HR MIN TEMP:  89; 6HR MAX TEMP: 104;

$$

NVZ020-UTZ003-280700-
SOUTHERN NEVADA-UTAH

CITY           SKY/WX    TMP DP  RH WIND       PRES   REMARKS
LAS VEGAS      NOT AVBL
SALT LAKE CITY PTCLDY    64  51  62 SE8       30.21S
6HR MIN TEMP:  64; 6HR MAX TEMP:  75;

$$

NMZ009-TXZ055-280700-
NEW MEXICO-WEST TEXAS

CITY           SKY/WX    TMP DP  RH WIND       PRES   REMARKS
ALBUQUERQUE    PTCLDY    68  53  58 N5        30.24R
6HR MIN TEMP:  65; 6HR MAX TEMP:  80;

EL PASO        PTCLDY    76  58  53 CALM      30.11F
6HR MIN TEMP:  73; 6HR MAX TEMP:  85;

$$


........................KEY........................
SKY/WX - SKY CONDITION/WEATHER
TMP    - TEMPERATURE IN FAHRENHEIT
DP     - DEW POINT IN FAHRENHEIT
RH     - RELATIVE HUMIDITY IN PERCENT
WIND   - DIRECTION AND SPEED IN MILES PER HOUR (MPH)
VRB    - VARIABLE WIND DIRECTION
PRES   - MEAN SEA LEVEL PRESSURE IN INCHES OF MERCURY
         F - FALLING PRESSURE   R - RISING PRESSURE
         S - STEADY PRESSURE
VSB    - VISIBILITY IN MILES
HX     - HEAT INDEX IN FAHRENHEIT
WCI    - WIND CHILL INDEX IN FAHRENHEIT
TC     - TEMPERATURE IN CELSIUS WHICH IS ALSO KNOWN AS
         TEMPERATURE IN CENTIGRADE
AFB    - AIR FORCE BASE
         LUKE AFB IS LUKE AIR FORCE BASE
         DAVIS-MONTHAN IS DAVIS-MONTHAN AIR FORCE BASE
NAS    - NAVAL AIR STATION
         EL CENTRO NAS IS EL CENTRO NAVAL AIR STATION
N/A    - NOT AVAILABLE


USA.gov is the U.S. government's official web portal to all federal, state and local government web resources and services.